Zanesville, OH

1:44 PM EDT on May 29, 2017 (GMT -0400)
Zanesville Municipal

Weather History for KZZV - March, 2013

Change the Weather History Date:

Sunday, March 3, 2013

  Actual Average Record
Temperature  
Mean Temperature 23 °F 36 °F  
Max Temperature 26 °F 46 °F 75 °F (1974)
Min Temperature 19 °F 26 °F 3 °F (1950)
Degree Days  
Heating Degree Days 42 29  
Month to date heating degree days 114 87  
Since 1 July heating degree days 4245 4278  
Cooling Degree Days 0 0  
Month to date cooling degree days 0 0  
Year to date cooling degree days 0 0  
Moisture  
Dew Point 18 °F    
Average Humidity 75    
Maximum Humidity 88    
Minimum Humidity 62    
Precipitation  
Precipitation T in 0.08 in 0.88 in (1951)
Month to date precipitation 0.02 0.25  
Year to date precipitation 4.50 5.08  
Sea Level Pressure  
Sea Level Pressure 30.02 in    
Wind  
Wind Speed 6 mph (NW)    
Max Wind Speed 15 mph    
Max Gust Speed 21 mph    
Visibility 6 miles    
Events Snow    
T = Trace of Precipitation, MM = Missing Value Source: NWS Daily Summary

Daily Weather History Graph

Daily Weather History Graph

Search for Another Location

Airport or City:

Trip Planner

Search our weather history database for the weather conditions in past years. The results will help you decide how hot, cold, wet, or windy it might be!

Date:

Astronomy

Mar. 03, 2013 Rise Set
Actual Time 6:57 AM EST 6:21 PM EST
Civil Twilight 6:30 AM EST 6:49 PM EST
Nautical Twilight 5:59 AM EST 7:20 PM EST
Astronomical Twilight 5:27 AM EST 7:51 PM EST
Moon No Moon Rise 10:11 AM EST (3/3)
Length of Visible Light 12h 18m
Length of Day
11h 24m
Waning Gibbous, 64% of the Moon is Illuminated
Mar 3
Waning Gibbous
Mar 4
Last Quarter
Mar 11
New
Mar 19
First Quarter
Mar 27
Full

Hourly Weather History & Observations

Time (EST) Temp. Windchill Dew Point Humidity Pressure Visibility Wind Dir Wind Speed Gust Speed Precip Events Conditions
12:42 AM 24.8 °F 17.9 °F 21.2 °F 86% 30.00 in 1.8 mi WNW 5.8 mph - 0.00 in Snow Light Snow
12:53 AM 25.0 °F 19.3 °F 21.9 °F 88% 30.03 in 1.8 mi WNW 4.6 mph - 0.00 in Snow Light Snow
12:59 AM 24.8 °F 19.1 °F 21.2 °F 86% 30.00 in 3.0 mi WNW 4.6 mph - 0.00 in Snow Light Snow
1:22 AM 24.8 °F 19.1 °F 21.2 °F 86% 30.00 in 2.0 mi WNW 4.6 mph - 0.00 in Snow Light Snow
1:34 AM 24.8 °F 19.1 °F 21.2 °F 86% 30.00 in 1.2 mi WNW 4.6 mph - 0.00 in Snow Light Snow
1:45 AM 24.8 °F 17.9 °F 21.2 °F 86% 30.00 in 1.8 mi WNW 5.8 mph - 0.00 in Snow Light Snow
1:53 AM 25.0 °F 18.1 °F 21.9 °F 88% 30.03 in 2.0 mi NW 5.8 mph - 0.00 in Snow Light Snow
2:19 AM 24.8 °F 17.9 °F 21.2 °F 86% 30.00 in 3.0 mi NW 5.8 mph - 0.00 in Snow Light Snow
2:43 AM 24.8 °F 19.1 °F 21.2 °F 86% 29.99 in 6.0 mi NW 4.6 mph - 0.00 in Snow Light Snow
2:53 AM 25.0 °F 20.7 °F 21.9 °F 88% 30.02 in 8.0 mi NW 3.5 mph - 0.00 in   Overcast
3:53 AM 25.0 °F 20.7 °F 21.0 °F 85% 30.01 in 5.0 mi NW 3.5 mph - 0.00 in Snow Light Snow
4:53 AM 24.1 °F 18.2 °F 19.9 °F 84% 30.01 in 6.0 mi NW 4.6 mph - 0.00 in Snow Light Snow
5:42 AM 24.8 °F 17.9 °F 19.4 °F 80% 29.98 in 4.0 mi WNW 5.8 mph - 0.00 in Snow Light Snow
5:53 AM 24.1 °F 18.2 °F 19.0 °F 81% 30.02 in 7.0 mi WNW 4.6 mph - 0.00 in   Overcast
7:33 AM 24.8 °F 17.9 °F 19.4 °F 80% 30.00 in 7.0 mi WNW 5.8 mph - 0.00 in Snow Light Snow
7:53 AM 24.1 °F 15.2 °F 19.0 °F 81% 30.04 in 5.0 mi NW 8.1 mph - 0.00 in Snow Light Snow
8:21 AM 24.8 °F 17.9 °F 19.4 °F 80% 30.00 in 2.0 mi WNW 5.8 mph - 0.00 in Snow Light Snow
8:30 AM 24.8 °F 17.9 °F 19.4 °F 80% 30.00 in 1.8 mi NW 5.8 mph - 0.00 in Snow Light Snow
8:37 AM 24.8 °F 17.9 °F 19.4 °F 80% 30.00 in 2.5 mi NW 5.8 mph - 0.00 in Snow Light Snow
8:43 AM 24.8 °F 19.1 °F 19.4 °F 80% 30.01 in 3.0 mi NW 4.6 mph - 0.00 in Snow Light Snow
8:53 AM 24.1 °F 17.0 °F 19.9 °F 84% 30.04 in 3.0 mi WNW 5.8 mph - 0.00 in Snow Light Snow
9:00 AM 24.8 °F 17.9 °F 19.4 °F 80% 30.00 in 2.0 mi WNW 5.8 mph - 0.00 in Snow Light Snow
9:18 AM 24.8 °F 15.3 °F 19.4 °F 80% 30.00 in 2.5 mi WNW 9.2 mph - 0.00 in Snow Light Snow
9:27 AM 23.0 °F 14.7 °F 19.4 °F 86% 30.01 in 1.2 mi WNW 6.9 mph - 0.00 in Snow Light Snow
9:53 AM 24.1 °F 18.2 °F 19.0 °F 81% 30.04 in 1.0 mi NW 4.6 mph - 0.00 in Snow Light Snow
10:09 AM 24.8 °F 16.9 °F 19.4 °F 80% 30.01 in 1.5 mi NW 6.9 mph - 0.00 in Snow Light Snow
10:17 AM 24.8 °F 20.5 °F 19.4 °F 80% 30.01 in 2.5 mi NNW 3.5 mph - 0.00 in Snow Light Snow
10:45 AM 24.8 °F 17.9 °F 19.4 °F 80% 30.01 in 3.0 mi North 5.8 mph - 0.00 in Snow Light Snow
10:53 AM 25.0 °F 20.7 °F 19.0 °F 78% 30.04 in 2.5 mi NNW 3.5 mph - 0.00 in Snow Light Snow
11:01 AM 24.8 °F 19.1 °F 19.4 °F 80% 30.01 in 3.0 mi NW 4.6 mph - 0.00 in Snow Light Snow
11:40 AM 24.8 °F 16.9 °F 17.6 °F 74% 30.01 in 10.0 mi NW 6.9 mph - 0.00 in   Overcast
11:53 AM 25.0 °F 16.3 °F 17.1 °F 72% 30.04 in 9.0 mi NW 8.1 mph - 0.00 in Snow Light Snow
12:53 PM 25.0 °F 14.8 °F 16.0 °F 69% 30.03 in 8.0 mi NW 10.4 mph - 0.00 in   Overcast
1:53 PM 26.1 °F 16.2 °F 17.1 °F 69% 30.02 in 10.0 mi WNW 10.4 mph - 0.00 in   Overcast
2:53 PM 26.1 °F 17.6 °F 16.0 °F 66% 30.02 in 10.0 mi NNW 8.1 mph - 0.00 in   Overcast
3:53 PM 26.1 °F 15.6 °F 16.0 °F 66% 30.02 in 10.0 mi NW 11.5 mph - 0.00 in Snow Light Snow
4:53 PM 26.1 °F 16.2 °F 15.1 °F 63% 30.03 in 10.0 mi NW 10.4 mph - 0.00 in   Overcast
5:53 PM 25.0 °F 14.8 °F 14.0 °F 63% 30.04 in 10.0 mi NNW 10.4 mph - N/A   Overcast
6:31 PM 24.8 °F 15.3 °F 15.8 °F 69% 30.01 in 10.0 mi NW 9.2 mph - N/A   Overcast
6:53 PM 24.1 °F 16.0 °F 14.0 °F 65% 30.05 in 10.0 mi NNW 6.9 mph - N/A   Overcast
7:00 PM 24.8 °F 17.9 °F 15.8 °F 69% 30.02 in 10.0 mi NW 5.8 mph - N/A   Overcast
7:53 PM 23.0 °F 17.0 °F 14.0 °F 68% 30.07 in 10.0 mi NW 4.6 mph - N/A   Partly Cloudy
8:53 PM 21.9 °F - 14.0 °F 72% 30.08 in 10.0 mi Calm Calm - N/A   Scattered Clouds
9:53 PM 21.9 °F 17.2 °F 12.9 °F 68% 30.08 in 10.0 mi West 3.5 mph - N/A   Scattered Clouds
10:53 PM 21.0 °F - 15.1 °F 78% 30.08 in 10.0 mi Calm Calm - N/A   Overcast
11:53 PM 19.9 °F 14.9 °F 16.0 °F 85% 30.09 in 10.0 mi WSW 3.5 mph - N/A   Overcast